This demonstration page uses our WeatherBlox Daily Observations layout. Learn more.

Left ArrowRight Arrow

Hourly Observations for January 2, 2018

Temp ( °F °C ) Dew Point ( °F °C ) Humidity (%) Winds ( mph kmh ) Pressure ( in mb ) Visibility ( mi km ) Precip ( " mm )
12:53 am 00:53 Clear 17 -8.3 7 -13.9 64 64 ESE 9 15 30.48 1032 10 16 0.00 0.00
1:53 am 01:53 Clear 16 -8.9 9 -12.8 74 74 ESE 8 13 30.45 1031 10 16 0.00 0.00
2:53 am 02:53 Clear 16 -8.9 10 -12.2 77 77 E 7 11 30.44 1031 10 16 0.00 0.00
3:53 am 03:53 Clear 15 -9.4 11 -11.7 84 84 ESE 8 13 30.43 1030 10 16 0.00 0.00
4:53 am 04:53 Clear 15 -9.4 11 -11.7 84 84 E 6 9 30.43 1030 10 16 0.00 0.00
5:53 am 05:53 Clear 14 -10 11 -11.7 88 88 E 7 11 30.42 1030 10 16 0.00 0.00
6:05 am 06:05 Partly Cloudy 15 -9.4 12 -11.1 88 88 undefined N/A 30.59 1036 10 16 0.00 0.00
6:14 am 06:14 Mostly Cloudy 15 -9.4 12 -11.1 88 88 E 6 9 30.59 1036 10 16 0.00 0.00
6:53 am 06:53 Cloudy 16 -8.9 13 -10.6 88 88 undefined N/A 30.43 1031 10 16 0.00 0.00
7:53 am 07:53 Cloudy 18 -7.8 14 -10 84 84 E 9 15 30.44 1031 10 16 0.00 0.00
8:53 am 08:53 Cloudy 19 -7.2 15 -9.4 84 84 E 8 13 30.47 1032 10 16 0.00 0.00
9:53 am 09:53 Cloudy 20 -6.7 16 -8.9 85 85 E 9 15 30.49 1033 10 16 0.00 0.00
10:53 am 10:53 Cloudy 21 -6.1 17 -8.3 85 85 ENE 10 17 30.51 1033 10 16 0.00 0.00
11:30 am 11:30 Cloudy 21 -6.1 15 -9.4 78 78 ENE 13 20 30.62 1037 10 16 0.00 0.00
11:53 am 11:53 Cloudy 20 -6.7 15 -9.4 81 81 NE 13 20 30.53 1034 10 16 0.00 0.00
12:53 pm 12:53 Cloudy 22 -5.6 14 -10 71 71 N 10 17 30.52 1034 10 16 0.00 0.00
1:17 pm 13:17 Cloudy 22 -5.6 14 -10 71 71 NNE 8 13 30.62 1037 10 16 0.00 0.00
1:53 pm 13:53 Cloudy 23 -5 14 -10 68 68 N 6 9 30.50 1033 10 16 0.00 0.00
2:53 pm 14:53 Cloudy 26 -3.3 14 -10 60 60 VRB 3 6 30.49 1032 10 16 0.00 0.00
3:40 pm 15:40 Partly Cloudy 28 -2.2 14 -10 56 56 VRB 3 6 30.56 1035 10 16 0.00 0.00
3:53 pm 15:53 Sunny 27 -2.8 14 -10 58 58 SW 6 9 30.48 1032 10 16 0.00 0.00
4:53 pm 16:53 Sunny 29 -1.7 13 -10.6 51 51 SSE 3 6 30.48 1032 10 16 0.00 0.00
5:53 pm 17:53 Sunny 26 -3.3 13 -10.6 57 57 WSW 8 13 30.50 1033 10 16 0.00 0.00
6:53 pm 18:53 Clear 21 -6.1 13 -10.6 71 71 SW 7 11 30.51 1033 10 16 0.00 0.00
7:53 pm 19:53 Clear 20 -6.7 13 -10.6 74 74 SW 8 13 30.51 1033 10 16 0.00 0.00
8:53 pm 20:53 Clear 19 -7.2 14 -10 81 81 WSW 7 11 30.52 1034 10 16 0.00 0.00
9:53 pm 21:53 Clear 19 -7.2 14 -10 81 81 WSW 10 17 30.53 1034 10 16 0.00 0.00
10:53 pm 22:53 Clear 17 -8.3 13 -10.6 84 84 W 7 11 30.53 1034 10 16 0.00 0.00
11:53 pm 23:53 Clear 15 -9.4 13 -10.6 91 91 W 6 9 30.54 1034 10 16 0.00 0.00

Powered by AerisWeather